HG8LXL-2 Weather Reports


Display with metric or nautical units.
time (UTC)temp
F
wind
direction
speed
MPH
gust
MPH
rain 1hr
in
rain 24hr
in
rain mn
in
humidity
%
barometer
mb
20260504172502 82 0.0 0.0 0.00 0.00 0.00 14 1011.7
20260504172002 82 0.0 0.0 0.00 0.00 0.00 14 1011.6
20260504171502 82 0.0 0.0 0.00 0.00 0.00 14 1011.7
20260504171002 83 0.0 0.0 0.00 0.00 0.00 13 1011.6
20260504170502 84 0.0 0.0 0.00 0.00 0.00 13 1011.7
20260504151002 90 0.0 0.0 0.00 0.00 0.00 9 1011.8
20260504150502 89 0.0 0.0 0.00 0.00 0.00 10 1011.8
20260504141002 89 0.0 0.0 0.00 0.00 0.00 9 1012.3
20260504140502 90 0.0 0.0 0.00 0.00 0.00 9 1012.3
20260504110501 89 0.0 0.0 0.00 0.00 0.00 11 1014.4
20260504082002 81 0.0 0.0 0.00 0.00 0.00 16 1016.3
20260504081502 81 0.0 0.0 0.00 0.00 0.00 14 1016.2
20260504081002 82 0.0 0.0 0.00 0.00 0.00 15 1016.3
20260504080502 79 0.0 0.0 0.00 0.00 0.00 15 1016.4
20260503230001 59 0.0 0.0 0.00 0.00 0.00 41 1016.4
20260503225501 59 0.0 0.0 0.00 0.00 0.00 41 1016.4
20260503225001 59 0.0 0.0 0.00 0.00 0.00 41 1016.4
20260503224501 60 0.0 0.0 0.00 0.00 0.00 41 1016.4
20260503224001 60 0.0 0.0 0.00 0.00 0.00 42 1016.3
20260503223502 60 0.0 0.0 0.00 0.00 0.00 41 1016.3
20260503223001 60 0.0 0.0 0.00 0.00 0.00 41 1016.3
20260503222501 61 0.0 0.0 0.00 0.00 0.00 39 1016.2
20260503222001 61 0.0 0.0 0.00 0.00 0.00 38 1016.3
20260503221501 61 0.0 0.0 0.00 0.00 0.00 38 1016.4
20260503221001 61 0.0 0.0 0.00 0.00 0.00 37 1016.3
20260503220501 61 0.0 0.0 0.00 0.00 0.00 37 1016.4
20260503220001 61 0.0 0.0 0.00 0.00 0.00 37 1016.3
20260503215501 62 0.0 0.0 0.00 0.00 0.00 37 1016.3
20260503215001 61 0.0 0.0 0.00 0.00 0.00 38 1016.3
20260503214501 61 0.0 0.0 0.00 0.00 0.00 39 1016.3
20260503214001 62 0.0 0.0 0.00 0.00 0.00 37 1016.2
20260503213501 62 0.0 0.0 0.00 0.00 0.00 37 1016.1
20260503213001 62 0.0 0.0 0.00 0.00 0.00 37 1016.2
20260503212501 63 0.0 0.0 0.00 0.00 0.00 36 1016.1
20260503212001 63 0.0 0.0 0.00 0.00 0.00 36 1016.2
20260503211501 63 0.0 0.0 0.00 0.00 0.00 35 1016.1
20260503211001 63 0.0 0.0 0.00 0.00 0.00 34 1016.2
20260503210501 63 0.0 0.0 0.00 0.00 0.00 35 1016.2
20260503210001 63 0.0 0.0 0.00 0.00 0.00 35 1016.1
20260503205502 64 0.0 0.0 0.00 0.00 0.00 34 1016.0
20260503205001 64 0.0 0.0 0.00 0.00 0.00 34 1016.1
20260503204502 65 0.0 0.0 0.00 0.00 0.00 33 1016.0
20260503204001 64 0.0 0.0 0.00 0.00 0.00 35 1016.0
20260503203501 64 0.0 0.0 0.00 0.00 0.00 34 1016.1
20260503203001 64 0.0 0.0 0.00 0.00 0.00 35 1016.1
20260503202501 65 0.0 0.0 0.00 0.00 0.00 35 1016.0
20260503202001 64 0.0 0.0 0.00 0.00 0.00 36 1016.0
20260503201501 65 0.0 0.0 0.00 0.00 0.00 36 1016.0
20260503201001 66 0.0 0.0 0.00 0.00 0.00 34 1016.0
20260503200501 66 0.0 0.0 0.00 0.00 0.00 35 1016.0
20260503200001 66 0.0 0.0 0.00 0.00 0.00 34 1015.9
20260503195501 66 0.0 0.0 0.00 0.00 0.00 35 1016.0
20260503195001 66 0.0 0.0 0.00 0.00 0.00 34 1016.0
20260503194501 66 0.0 0.0 0.00 0.00 0.00 34 1016.0
20260503194001 66 0.0 0.0 0.00 0.00 0.00 33 1015.9
20260503193501 66 0.0 0.0 0.00 0.00 0.00 34 1016.0
20260503193001 66 0.0 0.0 0.00 0.00 0.00 32 1016.0
20260503192501 67 0.0 0.0 0.00 0.00 0.00 32 1016.0
20260503192001 67 0.0 0.0 0.00 0.00 0.00 32 1015.9
20260503191501 67 0.0 0.0 0.00 0.00 0.00 31 1015.9
20260503191001 68 0.0 0.0 0.00 0.00 0.00 31 1015.8
20260503190501 67 0.0 0.0 0.00 0.00 0.00 31 1015.8
20260503190001 68 0.0 0.0 0.00 0.00 0.00 31 1015.8
20260503185501 69 0.0 0.0 0.00 0.00 0.00 29 1015.7
20260503185001 69 0.0 0.0 0.00 0.00 0.00 29 1015.6
20260503184501 69 0.0 0.0 0.00 0.00 0.00 29 1015.6
20260503181001 72 0.0 0.0 0.00 0.00 0.00 24 1015.2
20260503180501 73 0.0 0.0 0.00 0.00 0.00 23 1015.2
20260503180001 73 0.0 0.0 0.00 0.00 0.00 23 1015.1
20260503175501 74 0.0 0.0 0.00 0.00 0.00 22 1015.1
20260503175001 74 0.0 0.0 0.00 0.00 0.00 21 1015.2
20260503174501 75 0.0 0.0 0.00 0.00 0.00 20 1015.1
20260503174001 76 0.0 0.0 0.00 0.00 0.00 19 1015.1
20260503173501 76 0.0 0.0 0.00 0.00 0.00 19 1015.0
20260503173002 76 0.0 0.0 0.00 0.00 0.00 18 1015.0